This is the latest recevied weather packets stored in our database for station/object N2RDT. If no packets are shown the sender has not sent any weather packets the latest 10 day(s).
| Time | Temp. | Humidity | Pressure | Rain* | Wind** | Luminosity | Snow |
|---|---|---|---|---|---|---|---|
| 1777942674 | 20° C | 45% | 1014.5 hPa | 0 mm | - | 0 W/m² | - |
| 1777942372 | 19.44° C | 46% | 1014.4 hPa | 0 mm | - | 0 W/m² | - |
| 1777942069 | 20° C | 45% | 1014.3 hPa | 0 mm | - | 0 W/m² | - |
| 1777941765 | 20° C | 45% | 1014.4 hPa | 0 mm | - | 0 W/m² | - |
| 1777941462 | 20.56° C | 43% | 1014.2 hPa | 0 mm | - | 0 W/m² | - |
| 1777941160 | 20.56° C | 43% | 1014.3 hPa | 0 mm | - | 0 W/m² | - |
| 1777940856 | 20.56° C | 43% | 1014.4 hPa | 0 mm | - | 0 W/m² | - |
| 1777940554 | 20.56° C | 42% | 1014.1 hPa | 0 mm | - | 0 W/m² | - |
| 1777940251 | 21.11° C | 41% | 1014 hPa | 0 mm | - | 0 W/m² | - |
| 1777939949 | 21.67° C | 40% | 1014 hPa | 0 mm | - | 1 W/m² | - |
| 1777939645 | 21.67° C | 39% | 1014 hPa | 0 mm | - | 2 W/m² | - |
| 1777939343 | 21.67° C | 39% | 1013.9 hPa | 0 mm | - | 5 W/m² | - |
| 1777939039 | 22.22° C | 38% | 1013.9 hPa | 0 mm | - | 8 W/m² | - |
| 1777938735 | 22.22° C | 38% | 1014 hPa | 0 mm | - | 10 W/m² | - |
| 1777938433 | 22.78° C | 37% | 1013.7 hPa | 0 mm | - | 15 W/m² | - |
| 1777938130 | 22.78° C | 36% | 1013.8 hPa | 0 mm | - | 20 W/m² | - |
| 1777937826 | 23.33° C | 36% | 1013.7 hPa | 0 mm | - | 25 W/m² | - |
| 1777937522 | 23.89° C | 33% | 1013.5 hPa | 0 mm | - | 30 W/m² | - |
| 1777937220 | 23.89° C | 33% | 1013.7 hPa | 0 mm | - | 35 W/m² | - |
| 1777936916 | 24.44° C | 32% | 1013.5 hPa | 0 mm | - | 40 W/m² | - |
| 1777936613 | 24.44° C | 30% | 1013.4 hPa | 0 mm | - | 44 W/m² | - |
| 1777936310 | 24.44° C | 30% | 1013.6 hPa | 0 mm | - | 53 W/m² | - |
| 1777936006 | 24.44° C | 30% | 1013.6 hPa | 0 mm | - | 54 W/m² | - |
| 1777935705 | 25° C | 29% | 1013.6 hPa | 0 mm | - | 57 W/m² | - |
| 1777935403 | 25.56° C | 28% | 1013.7 hPa | 0 mm | - | 101 W/m² | - |
* Rain latest hour (hover to see other rain measurements)
** Current wind speed in m/s (hover to see current wind gust speed)